Location: Izdebno
(52.6670°N, 16.2170°E)
Time: 04:04:45
(UTC+02:00)

SR - Pass Details

Date: 02 March 2024
Orbit: 577 x 862 km, 66.7° (Epoch: 22 April)

Event Time Altitude Azimuth Distance (km) Brightness Sun altitude
Rises 15:58:22 0° 258° (WSW) 3,425 ? 13.1°
Reaches altitude 10° 16:01:11 10° 268° (W) 2,469 ? 12.7°
Maximum altitude 16:06:12 31° 330° (NNW) 1,413 ? 12.0°
Drops below altitude 10° 16:10:59 10° 32° (NNE) 2,342 ? 11.4°
Sets 16:13:36 0° 43° (NE) 3,223 ? 11.0°
